Year,Month,Day,Hour,Minute,Value (Times are PST for temperature in C)
2018,09,29,00,00,11.90
2018,09,29,00,01,11.90
2018,09,29,00,02,11.90
2018,09,29,00,03,11.90
2018,09,29,00,04,12.10
2018,09,29,00,05,12.10
2018,09,29,00,06,12.20
2018,09,29,00,07,12.20
2018,09,29,00,08,12.20
2018,09,29,00,09,12.20
2018,09,29,00,10,12.20
2018,09,29,00,11,12.20
2018,09,29,00,12,12.20
2018,09,29,00,13,12.20
2018,09,29,00,14,12.20
2018,09,29,00,15,12.20
2018,09,29,00,16,12.20
2018,09,29,00,17,12.20
2018,09,29,00,18,12.30
2018,09,29,00,19,12.30
2018,09,29,00,20,12.20
2018,09,29,00,21,12.20
2018,09,29,00,22,12.30
2018,09,29,00,23,12.20
2018,09,29,00,24,12.20
2018,09,29,00,25,12.20
2018,09,29,00,26,12.20
2018,09,29,00,27,12.20
2018,09,29,00,28,12.20
2018,09,29,00,29,12.20
2018,09,29,00,30,12.20
2018,09,29,00,31,12.20
2018,09,29,00,32,12.20
2018,09,29,00,33,12.10
2018,09,29,00,34,12.10
2018,09,29,00,35,12.10
2018,09,29,00,36,12.10
2018,09,29,00,37,12.00
2018,09,29,00,38,12.00
2018,09,29,00,39,11.90
2018,09,29,00,40,11.90
2018,09,29,00,41,11.90
2018,09,29,00,42,11.80
2018,09,29,00,43,11.80
2018,09,29,00,44,11.80
2018,09,29,00,45,11.80
2018,09,29,00,46,11.80
2018,09,29,00,47,11.80
2018,09,29,00,48,11.80
2018,09,29,00,49,11.80
2018,09,29,00,50,11.80
2018,09,29,00,51,11.80
2018,09,29,00,52,11.90
2018,09,29,00,53,11.90
2018,09,29,00,54,11.90
2018,09,29,00,55,11.90
2018,09,29,00,56,11.90
2018,09,29,00,57,11.90
2018,09,29,00,58,11.90
2018,09,29,00,59,11.80
2018,09,29,01,00,11.80
2018,09,29,01,01,11.80
2018,09,29,01,02,11.80
2018,09,29,01,03,11.80
2018,09,29,01,04,11.80
2018,09,29,01,05,11.80
2018,09,29,01,06,11.80
2018,09,29,01,07,11.80
2018,09,29,01,08,11.80
2018,09,29,01,09,11.80
2018,09,29,01,10,11.80
2018,09,29,01,11,11.80
2018,09,29,01,12,11.80
2018,09,29,01,13,11.90
2018,09,29,01,14,11.90
2018,09,29,01,15,12.00
2018,09,29,01,16,12.00
2018,09,29,01,17,12.00
2018,09,29,01,18,12.10
2018,09,29,01,19,12.10
2018,09,29,01,20,12.00
2018,09,29,01,21,12.00
2018,09,29,01,22,12.00
2018,09,29,01,23,11.90
2018,09,29,01,24,11.90
2018,09,29,01,25,11.80
2018,09,29,01,26,11.80
2018,09,29,01,27,11.80
2018,09,29,01,28,11.80
2018,09,29,01,29,11.80
2018,09,29,01,30,11.80
2018,09,29,01,31,11.80
2018,09,29,01,32,11.80
2018,09,29,01,33,11.70
2018,09,29,01,34,11.70
2018,09,29,01,35,11.70
2018,09,29,01,36,11.70
2018,09,29,01,37,11.70
2018,09,29,01,38,11.70
2018,09,29,01,39,11.60
2018,09,29,01,40,11.60
2018,09,29,01,41,11.60
2018,09,29,01,42,11.50
2018,09,29,01,43,11.50
2018,09,29,01,44,11.50
2018,09,29,01,45,11.40
2018,09,29,01,46,11.40
2018,09,29,01,47,11.40
2018,09,29,01,48,11.30
2018,09,29,01,49,11.30
2018,09,29,01,50,11.30
2018,09,29,01,51,11.30
2018,09,29,01,52,11.30
2018,09,29,01,53,11.20
2018,09,29,01,54,11.20
2018,09,29,01,55,11.20
2018,09,29,01,56,11.20
2018,09,29,01,57,11.10
2018,09,29,01,58,11.10
2018,09,29,01,59,11.10
2018,09,29,02,00,11.10
2018,09,29,02,01,11.10
2018,09,29,02,02,11.10
2018,09,29,02,03,11.10
2018,09,29,02,04,11.10
2018,09,29,02,05,11.10
2018,09,29,02,06,11.10
2018,09,29,02,07,11.00
2018,09,29,02,08,11.10
2018,09,29,02,09,11.10
2018,09,29,02,10,11.10
2018,09,29,02,11,11.00
2018,09,29,02,12,11.00
2018,09,29,02,13,11.00
2018,09,29,02,14,10.90
2018,09,29,02,15,10.90
2018,09,29,02,16,10.90
2018,09,29,02,17,11.00
2018,09,29,02,18,11.00
2018,09,29,02,19,11.00
2018,09,29,02,20,11.10
2018,09,29,02,21,11.10
2018,09,29,02,22,11.10
2018,09,29,02,23,11.10
2018,09,29,02,24,11.10
2018,09,29,02,25,11.10
2018,09,29,02,26,11.10
2018,09,29,02,27,11.10
2018,09,29,02,28,11.10
2018,09,29,02,29,11.10
2018,09,29,02,30,11.10
2018,09,29,02,31,11.10
2018,09,29,02,32,11.00
2018,09,29,02,33,11.00
2018,09,29,02,34,11.00
2018,09,29,02,35,11.00
2018,09,29,02,36,11.00
2018,09,29,02,37,11.00
2018,09,29,02,38,10.90
2018,09,29,02,39,11.00
2018,09,29,02,40,11.00
2018,09,29,02,41,11.00
2018,09,29,02,42,11.10
2018,09,29,02,43,11.10
2018,09,29,02,44,11.10
2018,09,29,02,45,11.00
2018,09,29,02,46,11.00
2018,09,29,02,47,11.00
2018,09,29,02,48,11.00
2018,09,29,02,49,11.00
2018,09,29,02,50,11.00
2018,09,29,02,51,11.00
2018,09,29,02,52,11.00
2018,09,29,02,53,11.00
2018,09,29,02,54,11.00
2018,09,29,02,55,10.90
2018,09,29,02,56,10.90
2018,09,29,02,57,10.90
2018,09,29,02,58,10.90
2018,09,29,02,59,10.90
2018,09,29,03,00,10.80
2018,09,29,03,01,10.80
2018,09,29,03,02,10.80
2018,09,29,03,03,10.80
2018,09,29,03,04,10.80
2018,09,29,03,05,10.80
2018,09,29,03,06,10.80
2018,09,29,03,07,10.80
2018,09,29,03,08,10.80
2018,09,29,03,09,10.80
2018,09,29,03,10,10.80
2018,09,29,03,11,10.80
2018,09,29,03,12,10.80
2018,09,29,03,13,10.80
2018,09,29,03,14,10.80
2018,09,29,03,15,10.70
2018,09,29,03,16,10.70
2018,09,29,03,17,10.70
2018,09,29,03,18,10.60
2018,09,29,03,19,10.60
2018,09,29,03,20,10.60
2018,09,29,03,21,10.50
2018,09,29,03,22,10.50
2018,09,29,03,23,10.50
2018,09,29,03,24,10.40
2018,09,29,03,25,10.40
2018,09,29,03,26,10.40
2018,09,29,03,27,10.40
2018,09,29,03,28,10.40
2018,09,29,03,29,10.40
2018,09,29,03,30,10.40
2018,09,29,03,31,10.50
2018,09,29,03,32,10.50
2018,09,29,03,33,10.60
2018,09,29,03,34,10.60
2018,09,29,03,35,10.60
2018,09,29,03,36,10.50
2018,09,29,03,37,10.50
2018,09,29,03,38,10.50
2018,09,29,03,39,10.40
2018,09,29,03,40,10.40
2018,09,29,03,41,10.30
2018,09,29,03,42,10.30
2018,09,29,03,43,10.30
2018,09,29,03,44,10.30
2018,09,29,03,45,10.30
2018,09,29,03,46,10.30
2018,09,29,03,47,10.30
2018,09,29,03,48,10.30
2018,09,29,03,49,10.30
2018,09,29,03,50,10.40
2018,09,29,03,51,10.30
2018,09,29,03,52,10.30
2018,09,29,03,53,10.30
2018,09,29,03,54,10.30
2018,09,29,03,55,10.20
2018,09,29,03,56,10.20
2018,09,29,03,57,10.20
2018,09,29,03,58,10.20
2018,09,29,03,59,10.20
2018,09,29,04,00,10.20
2018,09,29,04,01,10.20
2018,09,29,04,02,10.20
2018,09,29,04,03,10.20
2018,09,29,04,04,10.30
2018,09,29,04,05,10.40
2018,09,29,04,06,10.50
2018,09,29,04,07,10.60
2018,09,29,04,08,10.70
2018,09,29,04,09,10.90
2018,09,29,04,10,11.00
2018,09,29,04,11,11.10
2018,09,29,04,12,11.20
2018,09,29,04,13,11.30
2018,09,29,04,14,11.30
2018,09,29,04,15,11.40
2018,09,29,04,16,11.50
2018,09,29,04,17,11.60
2018,09,29,04,18,11.70
2018,09,29,04,19,11.70
2018,09,29,04,20,11.80
2018,09,29,04,21,11.80
2018,09,29,04,22,11.80
2018,09,29,04,23,11.90
2018,09,29,04,24,11.90
2018,09,29,04,25,11.90
2018,09,29,04,26,11.90
2018,09,29,04,27,11.90
2018,09,29,04,28,11.90
2018,09,29,04,29,11.90
2018,09,29,04,30,11.90
2018,09,29,04,31,11.90
2018,09,29,04,32,12.00
2018,09,29,04,33,12.00
2018,09,29,04,34,12.00
2018,09,29,04,35,12.00
2018,09,29,04,36,12.10
2018,09,29,04,37,12.10
2018,09,29,04,38,12.10
2018,09,29,04,39,12.10
2018,09,29,04,40,12.20
2018,09,29,04,41,12.20
2018,09,29,04,42,12.20
2018,09,29,04,43,12.20
2018,09,29,04,44,12.30
2018,09,29,04,45,12.30
2018,09,29,04,46,12.30
2018,09,29,04,47,12.30
2018,09,29,04,48,12.30
2018,09,29,04,49,12.40
2018,09,29,04,50,12.40
2018,09,29,04,51,12.40
2018,09,29,04,52,12.40
2018,09,29,04,53,12.40
2018,09,29,04,54,12.40
2018,09,29,04,55,12.40
2018,09,29,04,56,12.40
2018,09,29,04,57,12.40
2018,09,29,04,58,12.40
2018,09,29,04,59,12.40
2018,09,29,05,00,12.40
2018,09,29,05,01,12.40
2018,09,29,05,02,12.40
2018,09,29,05,03,12.40
2018,09,29,05,04,12.40
2018,09,29,05,05,12.40
2018,09,29,05,06,12.40
2018,09,29,05,07,12.40
2018,09,29,05,08,12.40
2018,09,29,05,09,12.40
2018,09,29,05,10,12.30
2018,09,29,05,11,12.30
2018,09,29,05,12,12.30
2018,09,29,05,13,12.30
2018,09,29,05,14,12.30
2018,09,29,05,15,12.30
2018,09,29,05,16,12.30
2018,09,29,05,17,12.30
2018,09,29,05,18,12.30
2018,09,29,05,19,12.30
2018,09,29,05,20,12.30
2018,09,29,05,21,12.30
2018,09,29,05,22,12.30
2018,09,29,05,23,12.30
2018,09,29,05,24,12.30
2018,09,29,05,25,12.30
2018,09,29,05,26,12.30
2018,09,29,05,27,12.30
2018,09,29,05,28,12.30
2018,09,29,05,29,12.30
2018,09,29,05,30,12.30
2018,09,29,05,31,12.30
2018,09,29,05,32,12.30
2018,09,29,05,33,12.30
2018,09,29,05,34,12.30
2018,09,29,05,35,12.30
2018,09,29,05,36,12.30
2018,09,29,05,37,12.30
2018,09,29,05,38,12.30
2018,09,29,05,39,12.30
2018,09,29,05,40,12.30
2018,09,29,05,41,12.30
2018,09,29,05,42,12.30
2018,09,29,05,43,12.30
2018,09,29,05,44,12.20
2018,09,29,05,45,12.20
2018,09,29,05,46,12.20
2018,09,29,05,47,12.30
2018,09,29,05,48,12.30
2018,09,29,05,49,12.30
2018,09,29,05,50,12.30
2018,09,29,05,51,12.30
2018,09,29,05,52,12.30
2018,09,29,05,53,12.20
2018,09,29,05,54,12.20
2018,09,29,05,55,12.20
2018,09,29,05,56,12.20
2018,09,29,05,57,12.20
2018,09,29,05,58,12.20
2018,09,29,05,59,12.10
2018,09,29,06,00,12.10
2018,09,29,06,01,12.10
2018,09,29,06,02,12.10
2018,09,29,06,03,12.10
2018,09,29,06,04,12.10
2018,09,29,06,05,12.10
2018,09,29,06,06,12.10
2018,09,29,06,07,12.10
2018,09,29,06,08,12.10
2018,09,29,06,09,12.10
2018,09,29,06,10,12.10
2018,09,29,06,11,12.10
2018,09,29,06,12,12.10
2018,09,29,06,13,12.10
2018,09,29,06,14,12.10
2018,09,29,06,15,12.10
2018,09,29,06,16,12.10
2018,09,29,06,17,12.10
2018,09,29,06,18,12.20
2018,09,29,06,19,12.20
2018,09,29,06,20,12.20
2018,09,29,06,21,12.20
2018,09,29,06,22,12.20
2018,09,29,06,23,12.20
2018,09,29,06,24,12.20
2018,09,29,06,25,12.20
2018,09,29,06,26,12.20
2018,09,29,06,27,12.20
2018,09,29,06,28,12.20
2018,09,29,06,29,12.20
2018,09,29,06,30,12.20
2018,09,29,06,31,12.20
2018,09,29,06,32,12.20
2018,09,29,06,33,12.20
2018,09,29,06,34,12.20
2018,09,29,06,35,12.20
2018,09,29,06,36,12.20
2018,09,29,06,37,12.20
2018,09,29,06,38,12.20
2018,09,29,06,39,12.20
2018,09,29,06,40,12.20
2018,09,29,06,41,12.20
2018,09,29,06,42,12.20
2018,09,29,06,43,12.20
2018,09,29,06,44,12.20
2018,09,29,06,45,12.20
2018,09,29,06,46,12.20
2018,09,29,06,47,12.20
2018,09,29,06,48,12.20
2018,09,29,06,49,12.20
2018,09,29,06,50,12.20
2018,09,29,06,51,12.20
2018,09,29,06,52,12.20
2018,09,29,06,53,12.20
2018,09,29,06,54,12.20
2018,09,29,06,55,12.20
2018,09,29,06,56,12.20
2018,09,29,06,57,12.20
2018,09,29,06,58,12.20
2018,09,29,06,59,12.20
2018,09,29,07,00,12.20
2018,09,29,07,01,12.20
2018,09,29,07,02,12.20
2018,09,29,07,03,12.10
2018,09,29,07,04,12.10
2018,09,29,07,05,12.10
2018,09,29,07,06,12.10
2018,09,29,07,07,12.10
2018,09,29,07,08,12.10
2018,09,29,07,09,12.10
2018,09,29,07,10,12.10
2018,09,29,07,11,12.10
2018,09,29,07,12,12.10
2018,09,29,07,13,12.10
2018,09,29,07,14,12.10
2018,09,29,07,15,12.10
2018,09,29,07,16,12.10
2018,09,29,07,17,12.10
2018,09,29,07,18,12.10
2018,09,29,07,19,12.10
2018,09,29,07,20,12.10
2018,09,29,07,21,12.10
2018,09,29,07,22,12.00
2018,09,29,07,23,12.00
2018,09,29,07,24,12.00
2018,09,29,07,25,12.00
2018,09,29,07,26,12.00
2018,09,29,07,27,12.00
2018,09,29,07,28,12.10
2018,09,29,07,29,12.10
2018,09,29,07,30,12.10
2018,09,29,07,31,12.10
2018,09,29,07,32,12.10
2018,09,29,07,33,12.10
2018,09,29,07,34,12.10
2018,09,29,07,35,12.10
2018,09,29,07,36,12.10
2018,09,29,07,37,12.10
2018,09,29,07,38,12.20
2018,09,29,07,39,12.20
2018,09,29,07,40,12.20
2018,09,29,07,41,12.20
2018,09,29,07,42,12.20
2018,09,29,07,43,12.20
2018,09,29,07,44,12.20
2018,09,29,07,45,12.20
2018,09,29,07,46,12.20
2018,09,29,07,47,12.20
2018,09,29,07,48,12.30
2018,09,29,07,49,12.30
2018,09,29,07,50,12.30
2018,09,29,07,51,12.30
2018,09,29,07,52,12.30
2018,09,29,07,53,12.40
2018,09,29,07,54,12.40
2018,09,29,07,55,12.40
2018,09,29,07,56,12.40
2018,09,29,07,57,12.40
2018,09,29,07,58,12.40
2018,09,29,07,59,12.40
2018,09,29,08,00,12.40
2018,09,29,08,01,12.40
2018,09,29,08,02,12.40
2018,09,29,08,03,12.40
2018,09,29,08,04,12.50
2018,09,29,08,05,12.50
2018,09,29,08,06,12.50
2018,09,29,08,07,12.60
2018,09,29,08,08,12.60
2018,09,29,08,09,12.60
2018,09,29,08,10,12.60
2018,09,29,08,11,12.70
2018,09,29,08,12,12.70
2018,09,29,08,13,12.70
2018,09,29,08,14,12.70
2018,09,29,08,15,12.70
2018,09,29,08,16,12.70
2018,09,29,08,17,12.80
2018,09,29,08,18,12.80
2018,09,29,08,19,12.80
2018,09,29,08,20,12.80
2018,09,29,08,21,12.80
2018,09,29,08,22,12.80
2018,09,29,08,23,12.80
2018,09,29,08,24,12.90
2018,09,29,08,25,12.90
2018,09,29,08,26,12.90
2018,09,29,08,27,12.90
2018,09,29,08,28,12.90
2018,09,29,08,29,12.90
2018,09,29,08,30,12.90
2018,09,29,08,31,12.90
2018,09,29,08,32,12.90
2018,09,29,08,33,12.90
2018,09,29,08,34,12.90
2018,09,29,08,35,12.90
2018,09,29,08,36,13.00
2018,09,29,08,37,13.00
2018,09,29,08,38,13.00
2018,09,29,08,39,13.10
2018,09,29,08,40,13.10
2018,09,29,08,41,13.10
2018,09,29,08,42,13.10
2018,09,29,08,43,13.20
2018,09,29,08,44,13.20
2018,09,29,08,45,13.20
2018,09,29,08,46,13.30
2018,09,29,08,47,13.30
2018,09,29,08,48,13.40
2018,09,29,08,49,13.50
2018,09,29,08,50,13.50
2018,09,29,08,51,13.60
2018,09,29,08,52,13.70
2018,09,29,08,53,13.80
2018,09,29,08,54,13.80
2018,09,29,08,55,13.90
2018,09,29,08,56,14.00
2018,09,29,08,57,14.00
2018,09,29,08,58,14.10
2018,09,29,08,59,14.20
2018,09,29,09,00,14.20
2018,09,29,09,01,14.30
2018,09,29,09,02,14.40
2018,09,29,09,03,14.40
2018,09,29,09,04,14.50
2018,09,29,09,05,14.50
2018,09,29,09,06,14.60
2018,09,29,09,07,14.70
2018,09,29,09,08,14.80
2018,09,29,09,09,14.80
2018,09,29,09,10,14.90
2018,09,29,09,11,14.90
2018,09,29,09,12,15.00
2018,09,29,09,13,15.10
2018,09,29,09,14,15.10
2018,09,29,09,15,15.10
2018,09,29,09,16,15.20
2018,09,29,09,17,15.20
2018,09,29,09,18,15.20
2018,09,29,09,19,15.20
2018,09,29,09,20,15.30
2018,09,29,09,21,15.30
2018,09,29,09,22,15.40
2018,09,29,09,23,15.40
2018,09,29,09,24,15.50
2018,09,29,09,25,15.50
2018,09,29,09,26,15.60
2018,09,29,09,27,15.70
2018,09,29,09,28,15.70
2018,09,29,09,29,15.80
2018,09,29,09,30,15.90
2018,09,29,09,31,15.90
2018,09,29,09,32,16.00
2018,09,29,09,33,16.10
2018,09,29,09,34,16.10
2018,09,29,09,35,16.20
2018,09,29,09,36,16.20
2018,09,29,09,37,16.30
2018,09,29,09,38,16.40
2018,09,29,09,39,16.40
2018,09,29,09,40,16.50
2018,09,29,09,41,16.60
2018,09,29,09,42,16.60
2018,09,29,09,43,16.60
2018,09,29,09,44,16.70
2018,09,29,09,45,16.70
2018,09,29,09,46,16.70
2018,09,29,09,47,16.80
2018,09,29,09,48,16.80
2018,09,29,09,49,16.80
2018,09,29,09,50,16.90
2018,09,29,09,51,16.90
2018,09,29,09,52,16.90
2018,09,29,09,53,17.00
2018,09,29,09,54,17.00
2018,09,29,09,55,17.10
2018,09,29,09,56,17.20
2018,09,29,09,57,17.20
2018,09,29,09,58,17.20
2018,09,29,09,59,17.30
2018,09,29,10,00,17.30
2018,09,29,10,01,17.40
2018,09,29,10,02,17.40
2018,09,29,10,03,17.50
2018,09,29,10,04,17.60
2018,09,29,10,05,17.60
2018,09,29,10,06,17.70
2018,09,29,10,07,17.80
2018,09,29,10,08,17.80
2018,09,29,10,09,17.80
2018,09,29,10,10,17.80
2018,09,29,10,11,17.80
2018,09,29,10,12,17.80
2018,09,29,10,13,17.80
2018,09,29,10,14,17.80
2018,09,29,10,15,17.80
2018,09,29,10,16,17.80
2018,09,29,10,17,17.90
2018,09,29,10,18,18.00
2018,09,29,10,19,18.00
2018,09,29,10,20,18.10
2018,09,29,10,21,18.10
2018,09,29,10,22,18.20
2018,09,29,10,23,18.20
2018,09,29,10,24,18.30
2018,09,29,10,25,18.30
2018,09,29,10,26,18.30
2018,09,29,10,27,18.40
2018,09,29,10,28,18.40
2018,09,29,10,29,18.50
2018,09,29,10,30,18.60
2018,09,29,10,31,18.60
2018,09,29,10,32,18.70
2018,09,29,10,33,18.70
2018,09,29,10,34,18.70
2018,09,29,10,35,18.80
2018,09,29,10,36,18.80
2018,09,29,10,37,18.80
2018,09,29,10,38,18.80
2018,09,29,10,39,18.90
2018,09,29,10,40,18.90
2018,09,29,10,41,18.90
2018,09,29,10,42,18.90
2018,09,29,10,43,18.90
2018,09,29,10,44,18.90
2018,09,29,10,45,18.90
2018,09,29,10,46,19.00
2018,09,29,10,47,19.10
2018,09,29,10,48,19.10
2018,09,29,10,49,19.10
2018,09,29,10,50,19.20
2018,09,29,10,51,19.20
2018,09,29,10,52,19.30
2018,09,29,10,53,19.30
2018,09,29,10,54,19.40
2018,09,29,10,55,19.50
2018,09,29,10,56,19.50
2018,09,29,10,57,19.60
2018,09,29,10,58,19.60
2018,09,29,10,59,19.60
2018,09,29,11,00,19.60
2018,09,29,11,01,19.60
2018,09,29,11,02,19.60
2018,09,29,11,03,19.60
2018,09,29,11,04,19.60
2018,09,29,11,05,19.60
2018,09,29,11,06,19.60
2018,09,29,11,07,19.60
2018,09,29,11,08,19.60
2018,09,29,11,09,19.70
2018,09,29,11,10,19.80
2018,09,29,11,11,19.90
2018,09,29,11,12,19.90
2018,09,29,11,13,20.00
2018,09,29,11,14,20.10
2018,09,29,11,15,20.10
2018,09,29,11,16,20.10
2018,09,29,11,17,20.10
2018,09,29,11,18,20.10
2018,09,29,11,19,20.00
2018,09,29,11,20,20.00
2018,09,29,11,21,20.10
2018,09,29,11,22,20.10
2018,09,29,11,23,20.10
2018,09,29,11,24,20.20
2018,09,29,11,25,20.20
2018,09,29,11,26,20.30
2018,09,29,11,27,20.30
2018,09,29,11,28,20.40
2018,09,29,11,29,20.40
2018,09,29,11,30,20.50
2018,09,29,11,31,20.50
2018,09,29,11,32,20.50
2018,09,29,11,33,20.60
2018,09,29,11,34,20.60
2018,09,29,11,35,20.60
2018,09,29,11,36,20.60
2018,09,29,11,37,20.60
2018,09,29,11,38,20.60
2018,09,29,11,39,20.70
2018,09,29,11,40,20.70
2018,09,29,11,41,20.70
2018,09,29,11,42,20.70
2018,09,29,11,43,20.80
2018,09,29,11,44,20.70
2018,09,29,11,45,20.80
2018,09,29,11,46,20.80
2018,09,29,11,47,20.80
2018,09,29,11,48,20.90
2018,09,29,11,49,21.00
2018,09,29,11,50,21.10
2018,09,29,11,51,21.10
2018,09,29,11,52,21.20
2018,09,29,11,53,21.20
2018,09,29,11,54,21.30
2018,09,29,11,55,21.40
2018,09,29,11,56,21.50
2018,09,29,11,57,21.50
2018,09,29,11,58,21.50
2018,09,29,11,59,21.60
2018,09,29,12,00,21.60
2018,09,29,12,01,21.60
2018,09,29,12,02,21.60
2018,09,29,12,03,21.70
2018,09,29,12,04,21.60
2018,09,29,12,05,21.60
2018,09,29,12,06,21.60
2018,09,29,12,07,21.50
2018,09,29,12,08,21.40
2018,09,29,12,09,21.40
2018,09,29,12,10,21.40
2018,09,29,12,11,21.40
2018,09,29,12,12,21.50
2018,09,29,12,13,21.60
2018,09,29,12,14,21.70
2018,09,29,12,15,21.80
2018,09,29,12,16,21.80
2018,09,29,12,17,21.80
2018,09,29,12,18,21.80
2018,09,29,12,19,21.80
2018,09,29,12,20,21.80
2018,09,29,12,21,21.80
2018,09,29,12,22,21.80
2018,09,29,12,23,21.70
2018,09,29,12,24,21.70
2018,09,29,12,25,21.70
2018,09,29,12,26,21.60
2018,09,29,12,27,21.60
2018,09,29,12,28,21.60
2018,09,29,12,29,21.70
2018,09,29,12,30,21.70
2018,09,29,12,31,21.70
2018,09,29,12,32,21.70
2018,09,29,12,33,21.70
2018,09,29,12,34,21.70
2018,09,29,12,35,21.80
2018,09,29,12,36,21.80
2018,09,29,12,37,21.80
2018,09,29,12,38,21.80
2018,09,29,12,39,21.80
2018,09,29,12,40,21.70
2018,09,29,12,41,21.70
2018,09,29,12,42,21.70
2018,09,29,12,43,21.70
2018,09,29,12,44,21.70
2018,09,29,12,45,21.80
2018,09,29,12,46,21.80
2018,09,29,12,47,21.80
2018,09,29,12,48,21.80
2018,09,29,12,49,21.80
2018,09,29,12,50,21.80
2018,09,29,12,51,21.80
2018,09,29,12,52,21.90
2018,09,29,12,53,21.90
2018,09,29,12,54,21.90
2018,09,29,12,55,21.90
2018,09,29,12,56,21.90
2018,09,29,12,57,21.90
2018,09,29,12,58,21.90
2018,09,29,12,59,21.90
2018,09,29,13,00,21.80
2018,09,29,13,01,21.80
2018,09,29,13,02,21.80
2018,09,29,13,03,21.80
2018,09,29,13,04,21.80
2018,09,29,13,05,21.80
2018,09,29,13,06,21.80
2018,09,29,13,07,21.80
2018,09,29,13,08,21.80
2018,09,29,13,09,21.80
2018,09,29,13,10,21.80
2018,09,29,13,11,21.80
2018,09,29,13,12,21.80
2018,09,29,13,13,21.80
2018,09,29,13,14,21.80
2018,09,29,13,15,21.90
2018,09,29,13,16,21.90
2018,09,29,13,17,22.10
2018,09,29,13,18,22.20
2018,09,29,13,19,22.30
2018,09,29,13,20,22.40
2018,09,29,13,21,22.50
2018,09,29,13,22,22.50
2018,09,29,13,23,22.50
2018,09,29,13,24,22.50
2018,09,29,13,25,22.50
2018,09,29,13,26,22.60
2018,09,29,13,27,22.60
2018,09,29,13,28,22.60
2018,09,29,13,29,22.70
2018,09,29,13,30,22.80
2018,09,29,13,31,22.80
2018,09,29,13,32,22.90
2018,09,29,13,33,22.90
2018,09,29,13,34,22.90
2018,09,29,13,35,23.00
2018,09,29,13,36,23.00
2018,09,29,13,37,23.10
2018,09,29,13,38,23.10
2018,09,29,13,39,23.10
2018,09,29,13,40,23.20
2018,09,29,13,41,23.20
2018,09,29,13,42,23.30
2018,09,29,13,43,23.30
2018,09,29,13,44,23.40
2018,09,29,13,45,23.40
2018,09,29,13,46,23.50
2018,09,29,13,47,23.60
2018,09,29,13,48,23.60
2018,09,29,13,49,23.70
2018,09,29,13,50,23.70
2018,09,29,13,51,23.70
2018,09,29,13,52,23.70
2018,09,29,13,53,23.70
2018,09,29,13,54,23.70
2018,09,29,13,55,23.70
2018,09,29,13,56,23.80
2018,09,29,13,57,23.80
2018,09,29,13,58,23.90
2018,09,29,13,59,23.90
2018,09,29,14,00,23.90
2018,09,29,14,01,23.90
2018,09,29,14,02,23.90
2018,09,29,14,03,23.80
2018,09,29,14,04,23.70
2018,09,29,14,05,23.60
2018,09,29,14,06,23.50
2018,09,29,14,07,23.50
2018,09,29,14,08,23.40
2018,09,29,14,09,23.40
2018,09,29,14,10,23.30
2018,09,29,14,11,23.30
2018,09,29,14,12,23.30
2018,09,29,14,13,23.20
2018,09,29,14,14,23.20
2018,09,29,14,15,23.20
2018,09,29,14,16,23.20
2018,09,29,14,17,23.20
2018,09,29,14,18,23.20
2018,09,29,14,19,23.20
2018,09,29,14,20,23.20
2018,09,29,14,21,23.20
2018,09,29,14,22,23.20
2018,09,29,14,23,23.20
2018,09,29,14,24,23.20
2018,09,29,14,25,23.20
2018,09,29,14,26,23.20
2018,09,29,14,27,23.10
2018,09,29,14,28,23.00
2018,09,29,14,29,23.00
2018,09,29,14,30,22.90
2018,09,29,14,31,22.80
2018,09,29,14,32,22.70
2018,09,29,14,33,22.60
2018,09,29,14,34,22.40
2018,09,29,14,35,22.30
2018,09,29,14,36,22.30
2018,09,29,14,37,22.30
2018,09,29,14,38,22.30
2018,09,29,14,39,22.30
2018,09,29,14,40,22.30
2018,09,29,14,41,22.20
2018,09,29,14,42,22.20
2018,09,29,14,43,22.10
2018,09,29,14,44,22.10
2018,09,29,14,45,22.10
2018,09,29,14,46,22.10
2018,09,29,14,47,22.10
2018,09,29,14,48,22.10
2018,09,29,14,49,22.10
2018,09,29,14,50,22.10
2018,09,29,14,51,22.10
2018,09,29,14,52,22.10
2018,09,29,14,53,22.10
2018,09,29,14,54,22.10
2018,09,29,14,55,22.10
2018,09,29,14,56,22.10
2018,09,29,14,57,22.10
2018,09,29,14,58,22.20
2018,09,29,14,59,22.20
2018,09,29,15,00,22.30
2018,09,29,15,01,22.30
2018,09,29,15,02,22.30
2018,09,29,15,03,22.30
2018,09,29,15,04,22.30
2018,09,29,15,05,22.30
2018,09,29,15,06,22.30
2018,09,29,15,07,22.30
2018,09,29,15,08,22.20
2018,09,29,15,09,22.20
2018,09,29,15,10,22.20
2018,09,29,15,11,22.10
2018,09,29,15,12,22.10
2018,09,29,15,13,22.10
2018,09,29,15,14,22.00
2018,09,29,15,15,22.00
2018,09,29,15,16,22.00
2018,09,29,15,17,22.00
2018,09,29,15,18,22.00
2018,09,29,15,19,22.00
2018,09,29,15,20,22.00
2018,09,29,15,21,21.90
2018,09,29,15,22,21.90
2018,09,29,15,23,21.90
2018,09,29,15,24,21.90
2018,09,29,15,25,21.80
2018,09,29,15,26,21.80
2018,09,29,15,27,21.70
2018,09,29,15,28,21.50
2018,09,29,15,29,21.30
2018,09,29,15,30,21.10
2018,09,29,15,31,20.90
2018,09,29,15,32,20.70
2018,09,29,15,33,20.60
2018,09,29,15,34,20.50
2018,09,29,15,35,20.40
2018,09,29,15,36,20.30
2018,09,29,15,37,20.30
2018,09,29,15,38,20.20
2018,09,29,15,39,20.20
2018,09,29,15,40,20.20
2018,09,29,15,41,20.10
2018,09,29,15,42,20.10
2018,09,29,15,43,20.10
2018,09,29,15,44,20.10
2018,09,29,15,45,20.10
2018,09,29,15,46,20.10
2018,09,29,15,47,20.10
2018,09,29,15,48,20.10
2018,09,29,15,49,20.10
2018,09,29,15,50,20.10
2018,09,29,15,51,20.20
2018,09,29,15,52,20.20
2018,09,29,15,53,20.20
2018,09,29,15,54,20.20
2018,09,29,15,55,20.20
2018,09,29,15,56,20.20
2018,09,29,15,57,20.10
2018,09,29,15,58,20.10
2018,09,29,15,59,20.10
2018,09,29,16,00,20.10
2018,09,29,16,01,20.10
2018,09,29,16,02,20.00
2018,09,29,16,03,20.00
2018,09,29,16,04,19.90
2018,09,29,16,05,19.90
2018,09,29,16,06,19.90
2018,09,29,16,07,19.90
2018,09,29,16,08,19.90
2018,09,29,16,09,19.90
2018,09,29,16,10,19.90
2018,09,29,16,11,19.90
2018,09,29,16,12,19.90
2018,09,29,16,13,19.80
2018,09,29,16,14,19.80
2018,09,29,16,15,19.80
2018,09,29,16,16,19.80
2018,09,29,16,17,19.70
2018,09,29,16,18,19.70
2018,09,29,16,19,19.70
2018,09,29,16,20,19.60
2018,09,29,16,21,19.60
2018,09,29,16,22,19.50
2018,09,29,16,23,19.30
2018,09,29,16,24,19.20
2018,09,29,16,25,19.20
2018,09,29,16,26,19.00
2018,09,29,16,27,18.90
2018,09,29,16,28,18.80
2018,09,29,16,29,18.70
2018,09,29,16,30,18.70
2018,09,29,16,31,18.50
2018,09,29,16,32,18.40
2018,09,29,16,33,18.30
2018,09,29,16,34,18.20
2018,09,29,16,35,18.20
2018,09,29,16,36,18.10
2018,09,29,16,37,18.00
2018,09,29,16,38,17.90
2018,09,29,16,39,17.80
2018,09,29,16,40,17.80
2018,09,29,16,41,17.70
2018,09,29,16,42,17.60
2018,09,29,16,43,17.50
2018,09,29,16,44,17.40
2018,09,29,16,45,17.30
2018,09,29,16,46,17.30
2018,09,29,16,47,17.30
2018,09,29,16,48,17.20
2018,09,29,16,49,17.20
2018,09,29,16,50,17.20
2018,09,29,16,51,17.20
2018,09,29,16,52,17.10
2018,09,29,16,53,17.10
2018,09,29,16,54,17.20
2018,09,29,16,55,17.10
2018,09,29,16,56,17.10
2018,09,29,16,57,17.10
2018,09,29,16,58,17.10
2018,09,29,16,59,17.10
2018,09,29,17,00,17.10
2018,09,29,17,01,17.10
2018,09,29,17,02,17.10
2018,09,29,17,03,17.10
2018,09,29,17,04,17.10
2018,09,29,17,05,17.10
2018,09,29,17,06,17.10
2018,09,29,17,07,17.10
2018,09,29,17,08,17.10
2018,09,29,17,09,17.10
2018,09,29,17,10,17.10
2018,09,29,17,11,17.10
2018,09,29,17,12,17.10
2018,09,29,17,13,17.10
2018,09,29,17,14,17.10
2018,09,29,17,15,17.10
2018,09,29,17,16,17.10
2018,09,29,17,17,17.10
2018,09,29,17,18,17.10
2018,09,29,17,19,17.10